Location: Caltech
(34.1382°N, 118.1253°W)
Time: 05:00:08
(UTC-07:00)

Courier 1B - Visible Passes

Search period start: 24 October 2014 00:00
Search period end: 02 November 2014 23:00
Orbit: 963 x 1209 km, 28.3° (Epoch: 23 October)

Date Brightness Start Highest point End Pass type
(mag) Time Alt. Az. Time Alt. Az. Time Alt. Az.
28 Oct 10.1 06:35:32 10° S 06:39:14 15° SSE 06:43:02 10° ESE visible
30 Oct 9.7 06:39:59 10° SSW 06:45:18 24° SSE 06:50:53 10° ESE visible
31 Oct 9.8 05:47:24 10° SSW 05:51:45 18° SSE 05:56:16 10° ESE visible
01 Nov 9.9 04:55:30 10° S 04:58:15 13° SSE 05:01:02 10° SE visible
01 Nov 9.2 06:45:26 10° SW 06:51:29 34° SSE 06:57:52 10° E visible
02 Nov 9.3 04:52:22 10° SSW 04:57:53 27° SSE 05:03:40 10° ESE visible
